World > North America > United States > Texas

Rio Rico, Texas Regional Weather

Lat: 26.06N, Lon: 97.89W
Wx Zone: TXZ255Web Search

Ads allow us to feed your daily addiction for the world's greatest weather information. We're determined to offer quality sponsors, in the least annoying way possible.

Feedback


°F Click to change Rio Rico hourly weather to Imperial units.Click to change Rio Rico hourly weather to Metric units. °C
Rio Rico Weather Map
UTC Time: 4/13/2021, 04:18
Your Time:

Rio Rico, TX Regional Weather

Expires:202104130500;;469204
ASUS44 KSJT 130415
RWRSJT
WEST CENTRAL TEXAS REGIONAL WEATHER ROUNDUP
NATIONAL WEATHER SERVICE SAN ANGELO TX
1100 PM CDT MON APR 12 2021

NOTE: "FAIR" INDICATES FEW OR NO CLOUDS BELOW 12,000 FEET WITH NO
SIGNIFICANT WEATHER AND/OR OBSTRUCTIONS TO VISIBILITY.


TXZ229-232-234-239-242-243-245-247-249-250-
253-255-257-343-347-443-130500-
TEXAS COASTAL BEND, RIO GRANDE PLAINS DEEP SOUTH TEXAS
  
CITY           SKY/WX    TMP DP  RH WIND       PRES   REMARKS
VICTORIA       CLOUDY    73  67  81 E9        29.86R                  
BEEVILLE       CLOUDY    74  73  96 E13G18    29.83R                  
ROCKPORT       CLOUDY    74  71  91 E15       29.83R FOG              
PORT ARANSAS   CLOUDY    72  71  94 E10       29.84R FOG              
PORT LAVACA    CLOUDY    75  70  83 E17       29.86S                  
CORPUS CHRISTI CLOUDY    74  72  93 E14       29.81R                  
KINGSVILLE NAS CLOUDY    75  71  87 E13       29.81R                  
COTULLA        CLEAR     77  68  73 SE17G25   29.80R                  
LAREDO         CLEAR     76  68  76 SE18G25   29.77R                  
BROWNSVILLE    PTCLDY    76  71  85 E7        29.78R                  
PORT ISABEL    MOCLDY    76  72  87 E9        29.79R                  
HEBBRONVILLE   MOCLDY    73  64  71 SE12      29.82R                  
MCALLEN        CLEAR     76  69  79 E10       29.78R                  
WESLACO        NOT AVBL                                               
FALFURRIAS     MOCLDY    72  69  93 E8        29.80R            

SKY/WX - Weather  TMP - Temperature  DP - Dew Point  RH - Relative Humidity
WIND - Wind Direction/Speed PRES - Barometric Pressure VSB - Visibility
WCI - Wind Chill Index E13G22 Wind - East Wind 13 mph/Gusts of 22 mph